[[{"header":{"parameterUnit":"m.s-1","parameterCategory":1,"la1":30.2991,"la2":30.254,"lo1":-89.0895,"lo2":-89.0444,"dy":0.0017,"dx":0.0017,"nx":28,"ny":28,"refTime":"2025-06-11T09:00:00:Z","depth":0,"parameterNumber":2,"parameterNumberName":"U-component_of_WINDS"},"data":[0,0,0,0,0,0,0,0,0,0,0,0,0,0,0,0,0,0,0,0,0,0,0,0,0,0,0,0,0,0,0,0,0,0,0,0,0,0,0,0,0,0,0,0,0,0,0,0,0,0,0,0,0,0,0,0,0,0,-2.6175,-2.6173,0,-2.5975,-2.5973,-2.597,-2.5855,-2.5854,-2.5854,-2.5853,-2.5645,-2.564,-2.5635,0,0,0,0,0,0,0,0,0,0,0,0,0,-2.6455,-2.645,-2.6176,-2.6173,-2.617,-2.5975,-2.5973,-2.597,-2.5855,-2.5854,-2.5854,-2.5853,-2.5647,-2.5641,-2.5634,0,0,0,0,0,0,0,0,0,0,0,0,0,-2.6302,-2.6449,-2.6176,-2.609,-2.608,-2.5976,-2.5972,-2.5969,-2.5855,-2.5854,-2.5853,-2.5853,-2.5649,-2.5641,-2.5633,-2.5599,0,0,-2.561,-2.5607,0,0,0,0,0,0,0,0,-2.6311,-2.6292,-2.6105,-2.6095,-2.6084,-2.5939,-2.5994,-2.5845,-2.5855,-2.594,-2.5853,-2.5852,-2.5743,-2.5728,-2.5691,-2.5589,-2.558,-2.5609,-2.5605,-2.5601,-2.5599,0,0,0,0,0,0,0,-2.6321,-2.63,-2.6096,-2.6102,-2.609,-2.606,-2.6037,-2.5966,-2.5848,-2.5933,-2.5924,-2.5902,-2.5737,-2.5699,-2.5686,-2.5577,-2.5609,-2.5603,-2.5598,-2.5595,-2.5435,-2.5435,0,0,0,0,0,0,-2.6346,-2.6309,-2.6102,-2.609,-2.6198,-2.6055,-2.603,-2.5986,-2.5848,-2.5826,-2.5903,-2.5897,-2.5713,-2.5695,-2.5678,-2.5626,-2.5601,-2.5594,-2.559,-2.5434,-2.5435,-2.5435,0,0,0,0,0,0,-2.6353,-2.6329,-2.611,-2.6197,-2.6167,-2.6051,-2.6003,-2.5983,-2.5944,-2.5825,-2.5803,-2.5885,-2.5711,-2.5689,-2.5619,-2.5618,-2.5591,-2.5584,-2.5434,-2.5434,-2.5435,-2.5525,0,0,0,0,0,0,-2.6361,-2.6332,-2.6319,-2.6198,-2.6163,-2.6057,-2.6003,-2.5979,-2.5932,-2.5923,-2.5803,-2.5783,-2.5709,-2.5631,-2.5612,-2.5607,-2.5578,-2.5433,-2.5434,-2.5435,-2.5522,-2.5529,-2.5535,0,0,0,0,0,-2.6372,-2.6352,-2.6318,-2.6294,-2.6144,-2.6057,-2.6037,-2.5953,-2.5932,-2.5917,-2.584,-2.5787,-2.5622,-2.5625,-2.5602,-2.5595,-2.5433,-2.5434,-2.5435,-2.5519,-2.5527,-2.5535,0,0,0,0,0,0,-2.6474,-2.6334,-2.6296,-2.6236,-2.616,-2.6037,-2.6015,-2.5965,-2.5891,-2.5886,-2.5784,-2.5758,-2.5698,-2.564,-2.5646,-2.5553,-2.5521,-2.5518,-2.5593,-2.56,-2.5607,-2.5621,-2.5571,0,0,0,0,0,-2.649,-2.6432,-2.6313,-2.6272,-2.6235,-2.6133,-2.6091,-2.6034,-2.5949,-2.5916,-2.5834,-2.5754,-2.5683,-2.5639,-2.5568,-2.5514,-2.5484,-2.5497,-2.5503,-2.5509,-2.5506,-2.5471,-2.5475,-2.5438,-2.5438,-2.5438,0,0,-2.6522,-2.6438,-2.6408,-2.629,-2.6224,-2.6164,-2.6106,-2.6046,-2.6,-2.5906,-2.5835,-2.5773,-2.5676,-2.5614,-2.5582,-2.5563,-2.5511,-2.551,-2.5516,-2.5509,-2.5473,-2.5476,-2.5479,-2.5438,-2.5438,-2.5438,0,0,-2.6549,-2.6482,-2.6439,-2.6374,-2.6274,-2.6206,-2.6196,-2.6081,-2.6036,-2.5964,-2.5892,-2.5836,-2.5717,-2.5651,-2.5601,-2.5604,-2.5551,-2.5584,-2.5616,-2.5583,-2.5586,-2.5588,-2.5587,-2.5588,-2.5582,-2.5582,-2.5582,0,-2.6601,-2.651,-2.6423,-2.6367,-2.6316,-2.623,-2.6185,-2.6126,-2.6008,-2.5975,-2.5955,-2.5804,-2.5733,-2.5653,-2.5653,-2.5617,-2.5601,-2.5595,-2.5593,-2.5594,-2.5595,-2.5592,-2.5592,-2.5586,-2.5586,-2.5585,-2.5585,0,-2.6577,-2.6515,-2.6493,-2.6382,-2.6329,-2.6279,-2.6183,-2.614,-2.6087,-2.6021,-2.5948,-2.5859,-2.5768,-2.5745,-2.5693,-2.5657,-2.5648,-2.5613,-2.5578,-2.5604,-2.56,-2.5598,-2.5593,-2.5591,-2.559,-2.5589,0,0,-2.6662,-2.6504,-2.6497,-2.6445,-2.6329,-2.6278,-2.6224,-2.6136,-2.61,-2.6022,-2.5972,-2.5874,-2.584,-2.5784,-2.5724,-2.5695,-2.57,-2.5662,-2.5658,-2.567,-2.5653,-2.5679,-2.5679,-2.5665,-2.5665,-2.5664,-2.566,0,-2.6671,-2.657,-2.649,-2.6418,-2.6359,-2.6276,-2.6228,-2.6151,-2.6088,-2.6027,-2.5956,-2.5887,-2.5849,-2.5815,-2.5783,-2.5706,-2.5695,-2.5706,-2.5616,-2.5614,-2.5641,-2.5677,-2.5704,-2.5704,-2.5658,-2.5658,-2.5657,0,-2.6667,-2.6593,-2.6515,-2.6404,-2.6376,-2.6335,-2.6246,-2.619,-2.6101,-2.6056,-2.5995,-2.5932,-2.5869,-2.5843,-2.5754,-2.5763,-2.5722,-2.5679,-2.5677,-2.5663,-2.5636,-2.5662,-2.5703,-2.5702,-2.5654,-2.5655,-2.5655,0,-2.6735,-2.6615,-2.6552,-2.6511,-2.638,-2.6353,-2.6297,-2.6207,-2.6158,-2.6081,-2.6048,-2.5965,-2.5919,-2.5855,-2.5771,-2.576,-2.569,-2.5657,-2.5649,-2.5652,-2.5636,-2.5638,-2.5669,-2.5615,-2.5615,-2.5615,-2.5615,0,-2.6751,-2.6707,-2.658,-2.6542,-2.6489,-2.6397,-2.6347,-2.6284,-2.6205,-2.6151,-2.6075,-2.6026,-2.5919,-2.5857,-2.5791,-2.5726,-2.5706,-2.5667,-2.565,-2.5673,-2.5678,-2.5643,-2.564,-2.5614,-2.5614,-2.5614,-2.5615,0,-2.6817,-2.6731,-2.6657,-2.6539,-2.6509,-2.6475,-2.6373,-2.6332,-2.6265,-2.6198,-2.6177,-2.6071,-2.5994,-2.5905,-2.5798,-2.5754,-2.5693,-2.5669,-2.5724,-2.5713,-2.571,-2.5711,-2.5717,-2.5712,-2.5665,-2.5665,-2.5666,0,-2.6832,-2.6796,-2.6674,-2.6633,-2.658,-2.6515,-2.6465,-2.6374,-2.6325,-2.622,-2.6191,-2.6108,-2.6037,-2.5918,-2.583,-2.5748,-2.572,-2.5728,-2.5707,-2.573,-2.5717,-2.5719,-2.5714,-2.5733,-2.5734,-2.5734,-2.5735,0,-2.6868,-2.6827,-2.6758,-2.6675,-2.6618,-2.6548,-2.6474,-2.6445,-2.6338,-2.6287,-2.6207,-2.6152,-2.6044,-2.5962,-2.5869,-2.5809,-2.5754,-2.5743,-2.5736,-2.5758,-2.579,-2.5771,-2.5737,-2.5742,-2.5742,-2.5741,-2.5741,-2.5741,-2.6906,-2.687,-2.6778,-2.6704,-2.6639,-2.6572,-2.6527,-2.6455,-2.6387,-2.6292,-2.6242,-2.6163,-2.6073,-2.5942,-2.5885,-2.5821,-2.5802,-2.5793,-2.579,-2.5789,-2.5795,-2.5803,-2.5804,-2.5804,-2.5803,-2.5803,-2.5803,0,-2.6936,-2.6874,-2.6807,-2.6706,-2.6647,-2.6602,-2.6518,-2.6471,-2.6403,-2.6324,-2.6256,-2.6164,-2.6084,-2.5991,-2.5905,-2.5871,-2.5844,-2.5852,-2.5852,-2.5839,-2.5818,-2.5831,-2.5875,-2.5875,-2.5875,-2.5875,-2.5875,-2.5875,-2.6945,-2.688,-2.6828,-2.6729,-2.6666,-2.6589,-2.6544,-2.6481,-2.6418,-2.6319,-2.6252,-2.6192,-2.6107,-2.6014,-2.5938,-2.5912,-2.5883,-2.5899,-2.5865,-2.5847,-2.5841,-2.5835,-2.5846,-2.5894,-2.5894,-2.5891,-2.5891,-2.5891]},{"header":{"parameterUnit":"m.s-1","parameterCategory":1,"la1":30.2991,"la2":30.254,"lo1":-89.0895,"lo2":-89.0444,"dy":0.0017,"dx":0.0017,"nx":28,"ny":28,"refTime":"2025-06-11T09:00:00:Z","depth":0,"parameterNumber":3,"parameterNumberName":"V-component_of_WINDS"},"data":[0,0,0,0,0,0,0,0,0,0,0,0,0,0,0,0,0,0,0,0,0,0,0,0,0,0,0,0,0,0,0,0,0,0,0,0,0,0,0,0,0,0,0,0,0,0,0,0,0,0,0,0,0,0,0,0,0,0,5.2697,5.2698,0,5.2774,5.2775,5.2776,5.2756,5.2755,5.2753,5.2752,5.2825,5.2828,5.2831,0,0,0,0,0,0,0,0,0,0,0,0,0,5.2528,5.2531,5.2697,5.2698,5.2699,5.2774,5.2775,5.2776,5.2757,5.2755,5.2753,5.2751,5.2824,5.2827,5.2831,0,0,0,0,0,0,0,0,0,0,0,0,0,5.2602,5.2532,5.2697,5.2699,5.2699,5.2774,5.2775,5.2776,5.2757,5.2755,5.2753,5.275,5.2822,5.2827,5.2832,5.2908,0,0,5.2847,5.2849,0,0,0,0,0,0,0,0,5.2598,5.2609,5.2697,5.2699,5.27,5.2754,5.2742,5.282,5.2758,5.2735,5.2752,5.2749,5.2802,5.2809,5.2828,5.2911,5.2914,5.2848,5.2851,5.2853,5.2854,0,0,0,0,0,0,0,5.2593,5.2605,5.2727,5.2699,5.27,5.2694,5.2702,5.2757,5.278,5.2737,5.2736,5.2745,5.2803,5.2823,5.283,5.2915,5.2848,5.2852,5.2855,5.2857,5.3065,5.3068,0,0,0,0,0,0,5.2588,5.2601,5.2725,5.273,5.2643,5.2698,5.2708,5.2738,5.2779,5.2784,5.2747,5.2744,5.2816,5.2824,5.2832,5.2925,5.2853,5.2857,5.286,5.3063,5.3066,5.3069,0,0,0,0,0,0,5.2584,5.2599,5.2722,5.2665,5.268,5.2704,5.2739,5.2741,5.2762,5.2787,5.2791,5.2765,5.2814,5.2825,5.289,5.2927,5.286,5.2864,5.306,5.3064,5.3067,5.311,0,0,0,0,0,0,5.2579,5.2598,5.2628,5.2666,5.2684,5.278,5.2741,5.2744,5.2771,5.2768,5.2805,5.2808,5.2813,5.2882,5.2895,5.2933,5.2868,5.3057,5.3062,5.3066,5.3105,5.3115,5.3123,0,0,0,0,0,5.2573,5.2635,5.263,5.2645,5.2722,5.2782,5.2792,5.2798,5.2774,5.2804,5.2821,5.2807,5.2921,5.2889,5.2903,5.2943,5.3054,5.306,5.3066,5.3101,5.3113,5.3123,0,0,0,0,0,0,5.2598,5.264,5.2634,5.2711,5.2744,5.2779,5.2817,5.281,5.2848,5.2844,5.2848,5.2856,5.2923,5.2939,5.2903,5.3019,5.2984,5.2993,5.3006,5.3017,5.3026,5.3021,5.2872,0,0,0,0,0,5.2613,5.266,5.2693,5.2757,5.2774,5.2793,5.2819,5.2822,5.2855,5.2868,5.2889,5.292,5.2963,5.299,5.3031,5.3107,5.3115,5.3141,5.315,5.3157,5.3165,5.3207,5.322,5.3087,5.3087,5.3087,0,0,5.2643,5.2672,5.2701,5.2763,5.2789,5.2837,5.2805,5.2856,5.2891,5.2875,5.2939,5.2955,5.299,5.3061,5.3093,5.3076,5.3203,5.3164,5.317,5.3174,5.3215,5.3227,5.3238,5.3091,5.3091,5.309,0,0,5.2723,5.2749,5.2807,5.2834,5.2874,5.2886,5.29,5.2937,5.2948,5.3012,5.3002,5.3042,5.3115,5.3141,5.3164,5.3255,5.3244,5.3268,5.3314,5.3355,5.3366,5.3375,5.3409,5.3421,5.3275,5.3275,5.3276,0,5.2755,5.2829,5.2836,5.289,5.2917,5.2908,5.2965,5.299,5.304,5.3059,5.304,5.3133,5.3155,5.3233,5.3256,5.3274,5.329,5.3264,5.3364,5.3373,5.3382,5.3414,5.3427,5.3278,5.3278,5.3278,5.3277,0,5.2866,5.2917,5.2958,5.3011,5.3043,5.3098,5.3113,5.3144,5.3143,5.3157,5.3223,5.325,5.3296,5.3315,5.3313,5.3393,5.3381,5.3363,5.3328,5.3398,5.3428,5.344,5.3282,5.3281,5.328,5.328,0,0,5.2964,5.3021,5.3036,5.3061,5.3105,5.3144,5.3198,5.3246,5.3273,5.3308,5.3353,5.3416,5.34,5.3426,5.3428,5.3464,5.3536,5.3441,5.3442,5.3459,5.3626,5.3641,5.3655,5.3529,5.3531,5.3533,5.3624,0,5.3049,5.3148,5.3157,5.3244,5.3292,5.3284,5.3331,5.3362,5.3377,5.3417,5.3432,5.3478,5.3452,5.3468,5.3503,5.352,5.357,5.3513,5.3571,5.3573,5.3564,5.3671,5.3686,5.3771,5.3636,5.3638,5.3639,0,5.3161,5.3203,5.3297,5.3336,5.3356,5.3399,5.3445,5.3484,5.3519,5.3527,5.3557,5.3554,5.3608,5.3571,5.3646,5.3608,5.3631,5.3643,5.3646,5.3653,5.3611,5.3682,5.3798,5.3811,5.3658,5.3656,5.3655,0,5.3225,5.3304,5.3371,5.3392,5.3439,5.3469,5.349,5.3523,5.3552,5.359,5.3609,5.3653,5.3677,5.371,5.3719,5.3691,5.3794,5.3757,5.3802,5.3802,5.3825,5.3824,5.3948,5.3838,5.3838,5.3838,5.3837,0,5.332,5.3378,5.3401,5.3442,5.3507,5.3516,5.3578,5.3597,5.3627,5.367,5.3664,5.3704,5.3713,5.3754,5.3761,5.3823,5.3833,5.3841,5.3842,5.3842,5.3842,5.3859,5.3854,5.3841,5.384,5.384,5.3839,0,5.3403,5.3421,5.3493,5.3533,5.3544,5.359,5.3623,5.3661,5.3675,5.3731,5.3744,5.3765,5.3814,5.3826,5.3883,5.3888,5.3962,5.3956,5.3951,5.3951,5.3996,5.3992,5.4137,5.4157,5.4032,5.4033,5.4034,0,5.3463,5.3508,5.3553,5.3584,5.3607,5.3654,5.3685,5.3695,5.3726,5.377,5.3804,5.3853,5.3893,5.3971,5.3991,5.4035,5.4031,5.4079,5.4038,5.4037,5.4034,5.4032,5.4037,5.4087,5.4089,5.409,5.409,0,5.3569,5.3576,5.3621,5.3671,5.3708,5.3746,5.3782,5.3806,5.3821,5.3856,5.3908,5.3939,5.4,5.4048,5.4093,5.4112,5.4104,5.4103,5.4116,5.4118,5.4114,5.4118,5.3974,5.41,5.4099,5.4098,5.4098,5.4098,5.3644,5.3684,5.3723,5.3774,5.3803,5.3837,5.3877,5.3897,5.3941,5.3993,5.3995,5.4051,5.4085,5.4145,5.4167,5.421,5.4195,5.4213,5.4218,5.4223,5.4228,5.4106,5.4218,5.4217,5.4217,5.4217,5.4217,0,5.3751,5.3776,5.3822,5.3875,5.3915,5.3906,5.3946,5.398,5.4031,5.4064,5.4104,5.4164,5.4211,5.4235,5.4282,5.4312,5.4309,5.4324,5.4322,5.4327,5.4238,5.4223,5.4325,5.4325,5.4325,5.4325,5.4325,5.4325,5.3811,5.388,5.3891,5.3974,5.3997,5.4055,5.4079,5.4111,5.4138,5.4206,5.4246,5.4262,5.4291,5.4341,5.4383,5.4389,5.4407,5.4424,5.4427,5.4344,5.4333,5.4323,5.4309,5.4427,5.4427,5.4513,5.4514,5.4515]}]]